Home > Weather > Traun > Past weeks

Flag for Austria Past Weather in Traun, Upper Austria, Austria — Yesterday and Last 2 Weeks

Now
52 °F

Light rain. Broken clouds.


Feels Like: 47 °F
Forecast: 51 / 65 °F
Wind: 13 mph from Southwest

Location: Linz / Hoersching-Flughafen

Current Time: May 24, 2016 at 7:47:26 PM

Latest Report: May 24, 2016 at 6:50 PM


Visibility: N/A

Pressure: 29.89 "Hg

Humidity: 94%

Dew Point: 50 °F

Location of TraunLocation

Past Weather in Traun — Graph

°F

Traun Temperature Yesterday

Maximum temperature yesterday: 68 °F (at 12:20 PM)
Minimum temperature yesterday: 48 °F (at 8:50 PM)
Average temperature yesterday: 60 °F

High & Low Weather Summary for the Past Weeks

 TemperatureHumidityPressure
High82 °F (May 22, 3:20 PM)100% (May 12, 10:50 PM)30.18 "Hg (May 12, 10:50 PM)
Low41 °F (May 16, 12:20 AM)29% (May 21, 6:20 PM)29.39 "Hg (May 12, 2:20 PM)
Average56 °F74%29.87 "Hg
* Reported May 9 6:20 PM — May 24 6:50 PM, Traun, Weather by CustomWeather, © 2016

Note: Actual official high and low records may vary slightly from our data, if they occured in-between our weather recording intervals... More about our weather records

Advertising

Traun Weather History for the Previous 24 Hours

Scroll right to see more
 ConditionsComfort  
Time TempWeatherWind HumidityBarometerVisibility
6:50 PM
Tue, May 24
52 °FLight rain. Broken clouds.13 mph94%29.89 "HgN/A
6:20 PM52 °FLight rain. Broken clouds.12 mph94%29.89 "HgN/A
5:50 PM52 °FBroken clouds.12 mph94%29.89 "HgN/A
5:20 PM54 °FBroken clouds.13 mph88%29.89 "HgN/A
4:50 PM54 °FBroken clouds.16 mph88%29.86 "HgN/A
4:20 PM52 °FLight rain. Broken clouds.15 mph94%29.86 "Hg6 mi
3:50 PM54 °FLight rain. Fog.17 mph88%29.86 "Hg3 mi
3:20 PM54 °FLight rain. Fog.16 mph88%29.86 "Hg3 mi
2:50 PM55 °FLight rain. Broken clouds.15 mph82%29.86 "HgN/A
2:20 PM54 °FLight rain. Partly sunny.15 mph88%29.86 "HgN/A
1:50 PM52 °FLight rain. Broken clouds.12 mph94%29.86 "HgN/A
1:20 PM52 °FLight rain. Broken clouds.13 mph94%29.89 "HgN/A
12:50 PM52 °FLight rain. Broken clouds.13 mph94%29.89 "HgN/A
12:20 PM52 °FLight rain. Broken clouds.10 mph94%29.86 "Hg6 mi
11:50 AM52 °FLight rain. Broken clouds.13 mph88%29.86 "Hg6 mi
11:20 AM50 °FLight rain. Broken clouds.10 mph94%29.86 "Hg4 mi
10:50 AM50 °FLight rain. Broken clouds.9 mph94%29.86 "Hg4 mi
10:20 AM50 °FRain. Broken clouds.9 mph94%29.86 "Hg4 mi
9:50 AM50 °FLight rain. Broken clouds.9 mph94%29.86 "Hg4 mi
9:20 AM50 °FDrizzle. Broken clouds.10 mph94%29.86 "Hg4 mi
8:50 AM48 °FDrizzle. Broken clouds.10 mph100%29.86 "Hg4 mi
8:20 AM48 °FDrizzle. Broken clouds.9 mph94%29.86 "Hg6 mi
7:50 AM48 °FDrizzle. Broken clouds.9 mph94%29.83 "Hg6 mi
7:20 AM48 °FDrizzle. Broken clouds.7 mph94%29.83 "HgN/A
6:50 AM48 °FLight rain. Broken clouds.7 mph94%29.83 "Hg6 mi
6:20 AM48 °FDrizzle. Broken clouds.7 mph94%29.83 "Hg6 mi
5:50 AM46 °FLight rain. Passing clouds.9 mph100%29.83 "Hg5 mi
5:20 AM46 °FLight rain. Passing clouds.6 mph100%29.86 "Hg5 mi
4:50 AM46 °FLight rain. Partly cloudy.9 mph100%29.83 "Hg5 mi
4:20 AM46 °FLight rain. Partly cloudy.7 mph100%29.86 "Hg5 mi
3:50 AM46 °FLight rain. Partly cloudy.5 mph100%29.86 "HgN/A
3:20 AM46 °FLight rain. Partly cloudy.7 mph100%29.86 "HgN/A
2:50 AM46 °FRain. Partly cloudy.8 mph100%29.86 "Hg5 mi
2:20 AM46 °FLight rain. Passing clouds.6 mph100%29.89 "Hg4 mi
1:50 AM46 °FRain. Partly cloudy.10 mph100%29.86 "Hg4 mi
1:20 AM46 °FLight rain. Passing clouds.9 mph100%29.89 "Hg3 mi
12:50 AM48 °FLight rain. Passing clouds.8 mph87%29.89 "Hg5 mi
12:20 AM48 °FOvercast.8 mph87%29.89 "HgN/A
11:50 PM
Mon, May 23
48 °FPassing clouds.10 mph87%29.89 "HgN/A
11:20 PM48 °FPassing clouds.9 mph87%29.89 "HgN/A
10:50 PM48 °FPartly cloudy.12 mph87%29.89 "HgN/A
10:20 PM48 °FSprinkles. Partly cloudy.10 mph87%29.92 "HgN/A
9:50 PM48 °FPartly cloudy.14 mph87%29.89 "HgN/A
9:20 PM48 °FSprinkles. Partly sunny.14 mph87%29.89 "Hg5 mi
8:50 PM48 °FSprinkles. Partly sunny.20 mph87%29.86 "Hg5 mi
8:20 PM50 °FSprinkles. Partly sunny.14 mph82%29.89 "HgN/A
7:50 PM50 °FPartly sunny.15 mph82%29.86 "HgN/A
7:20 PM52 °FPartly sunny.16 mph82%29.86 "HgN/A
Weather by CustomWeather, © 2016

See weather overviewHow to use our weather pages